Wind_Speed
33 31 29 28 27 26 26 26 26 26 26 26 26 25 23 23 22 23 22 21 21 21 22 22 22 23 24 25 25 25 25 25 24 22 22 21 20 19 19 19 17 16 15
35 33 30 29 28 27 26 27 27 26 26 26 26 25 25 23 22 22 22 21 21 20 20 21 22 23 24 24 25 26 27 27 27 26 25 24 23 21 20 20 20 19 18
36 34 32 30 28 27 26 26 26 26 26 26 26 26 24 23 22 21 20 20 19 19 19 20 21 23 24 24 25 27 28 29 29 29 29 27 26 25 23 22 21 21 20
36 34 32 30 29 27 27 27 27 27 26 26 26 25 24 22 21 20 19 19 18 18 19 19 20 21 23 24 25 27 28 30 31 31 31 30 29 28 26 25 23 22 22
34 33 32 31 29 27 27 27 26 26 26 25 25 24 23 22 20 19 18 18 18 17 18 18 19 20 22 23 24 26 27 29 32 33 33 32 31 30 29 28 26 24 24
33 32 31 31 29 27 27 26 25 25 24 24 24 24 23 22 20 20 18 17 17 17 17 18 19 20 22 23 24 26 27 29 32 34 34 34 34 32 31 30 29 27 26
30 32 30 28 28 28 27 26 25 25 24 24 24 24 23 22 21 20 19 17 17 16 17 17 19 20 22 23 25 26 28 29 31 34 34 34 35 34 33 32 30 29 28
27 29 29 28 29 28 27 26 25 25 25 24 25 24 23 22 21 20 19 18 17 16 17 17 18 20 21 23 24 26 28 29 32 33 33 33 34 35 35 33 33 31 30
27 29 29 29 29 28 28 27 27 26 26 26 26 26 24 23 22 22 20 18 18 17 17 18 19 20 21 22 23 25 27 29 31 32 32 33 33 34 36 36 34 34 32
28 29 29 29 30 30 29 29 29 29 28 28 28 28 27 25 24 23 22 20 19 18 18 19 19 20 20 21 23 24 26 28 30 32 32 31 32 33 35 36 37 35 35
32 32 32 31 31 32 32 32 31 31 31 30 30 30 29 27 26 25 23 22 20 19 19 19 20 20 20 20 21 22 24 26 28 30 31 31 32 32 33 35 37 37 36
36 36 36 35 35 35 35 34 34 33 33 32 32 32 31 30 29 27 26 24 22 20 20 20 20 20 20 20 20 21 22 24 26 27 29 29 30 30 30 32 34 36 36
43 42 41 41 40 39 38 38 38 37 36 35 35 34 34 33 32 30 28 27 25 23 22 21 21 20 20 20 20 20 21 22 23 24 26 28 29 28 28 29 32 33 35
49 49 48 47 47 46 44 42 42 41 40 39 38 38 37 36 35 33 31 29 28 26 24 22 21 21 21 20 20 20 20 20 21 22 24 26 27 28 27 27 29 31 33
55 55 55 54 53 52 51 49 47 46 45 44 43 42 40 39 38 36 34 32 30 28 26 24 22 22 21 21 20 19 19 19 20 21 22 24 26 28 27 27 28 29 30
58 60 61 60 59 58 57 56 54 52 51 50 48 46 44 43 41 39 37 35 32 30 29 27 25 23 22 21 20 20 19 19 20 20 22 23 24 25 26 27 27 27 28
55 58 61 63 64 64 63 62 61 59 57 55 54 51 49 47 44 42 40 38 35 32 30 28 27 24 23 21 20 19 19 19 19 20 21 22 23 24 25 25 25 26 26
51 54 57 60 64 67 68 68 66 65 63 60 59 57 54 52 49 46 43 40 38 35 32 30 28 25 24 22 20 19 19 19 19 20 21 22 22 23 23 24 25 25 26
49 50 53 56 60 64 68 70 70 70 69 66 63 61 59 56 53 50 46 43 40 37 34 31 29 27 24 23 21 20 19 19 19 20 22 23 23 23 24 24 24 24 25
49 49 50 52 54 58 63 67 71 72 72 70 68 64 62 59 57 53 50 46 43 40 36 33 30 28 26 23 22 20 19 20 20 20 21 23 24 24 25 25 25 25 25
49 48 48 48 49 52 55 58 63 69 72 72 71 68 64 61 59 56 53 49 46 43 39 35 32 29 27 24 23 21 20 20 20 21 21 22 24 25 25 25 25 25 25
49 49 48 48 47 48 49 52 55 59 64 69 70 70 68 64 61 59 56 52 48 45 42 38 33 30 28 26 24 22 21 20 20 20 21 22 23 24 25 25 25 24 23
46 47 47 47 47 46 45 45 47 49 53 58 64 68 68 66 63 59 57 55 50 47 43 40 35 32 30 27 25 23 22 21 20 20 20 21 22 23 24 24 24 24 24
43 44 45 45 45 44 43 42 42 43 45 48 52 58 63 65 66 61 56 54 51 48 44 41 37 34 31 29 26 24 23 22 20 20 20 21 22 22 23 23 23 23 23
39 40 42 43 44 43 43 42 40 39 39 41 43 46 52 58 62 62 58 54 52 49 45 42 39 36 33 30 27 25 23 22 21 21 21 21 21 21 22 22 22 22 22
33 36 40 41 42 42 41 41 40 38 36 36 38 39 43 48 53 58 58 55 52 49 46 43 40 37 34 31 28 25 24 22 21 21 21 21 21 22 22 22 22 21 22
Wind_Direction
262 264 264 264 265 266 267 268 269 268 268 268 268 269 270 275 273 272 273 272 271 269 266 266 262 260 258 256 251 248 245 242 238 236 234 233 231 231 230 230 230 231 231
257 259 259 260 261 263 265 267 268 268 267 267 267 266 268 271 271 270 271 272 270 269 267 266 263 260 260 259 255 251 247 241 239 237 235 234 233 232 231 232 233 234 235
254 254 255 255 258 261 264 265 266 266 265 265 265 265 265 267 267 267 269 270 269 269 267 267 266 265 261 260 257 253 249 245 241 238 236 235 234 233 233 233 233 234 236
249 252 251 253 256 260 262 263 263 264 263 262 262 263 263 263 262 264 267 269 270 271 272 272 271 269 263 262 259 256 251 248 244 239 238 236 235 234 233 232 232 234 235
247 249 250 253 255 258 259 260 260 260 260 259 257 257 258 259 260 261 264 267 269 271 274 274 273 270 266 265 261 258 254 250 246 242 239 238 236 236 235 234 233 234 235
248 252 249 252 255 256 257 258 258 257 255 253 252 251 252 254 255 257 259 262 265 268 273 275 275 273 269 267 263 260 257 253 249 244 242 240 237 236 236 236 235 235 235
253 254 252 253 253 254 255 255 255 252 250 248 246 245 247 249 251 254 255 258 263 267 272 276 277 274 270 267 263 259 257 254 252 248 247 243 240 238 237 237 237 236 235
260 254 251 251 252 253 254 253 251 249 247 244 243 242 243 245 247 250 252 256 262 268 274 278 279 277 273 269 264 260 256 255 254 252 250 246 243 240 239 238 239 237 236
268 262 258 256 254 254 252 252 251 249 245 243 241 241 243 244 246 248 250 254 261 269 275 279 280 279 276 272 268 263 259 255 253 251 251 250 249 244 239 240 239 237 237
271 267 265 261 257 254 252 251 251 249 245 242 240 241 243 244 248 249 250 252 259 266 273 279 281 281 279 275 271 266 262 257 254 252 252 250 250 247 244 241 240 241 239
270 268 266 264 259 256 253 251 250 249 246 243 240 240 242 245 248 250 251 253 257 264 272 278 282 283 282 280 276 271 265 260 256 252 251 251 250 249 246 243 241 241 240
266 264 262 260 257 255 253 250 249 249 247 244 242 241 241 243 246 249 253 255 257 262 270 276 281 284 285 283 280 276 270 262 258 253 249 248 249 251 249 246 241 241 240
261 259 257 255 254 252 252 251 249 248 247 245 243 242 242 242 244 247 251 255 258 261 267 272 278 283 285 284 282 280 274 265 258 252 249 247 246 248 246 245 243 241 239
258 256 253 251 251 250 249 249 248 247 247 246 244 243 242 242 243 244 246 251 256 259 263 269 274 280 283 284 283 280 273 266 259 251 248 246 242 242 243 244 242 240 239
256 254 252 249 248 247 246 245 245 246 246 245 245 244 243 243 243 243 244 247 251 256 261 266 271 276 281 283 283 282 275 266 257 251 247 244 240 240 242 243 241 239 238
257 253 250 248 247 245 245 244 243 243 244 244 243 243 243 243 243 242 243 244 247 252 258 263 268 273 277 281 282 281 277 266 256 251 246 244 241 240 239 241 241 241 242
261 255 251 248 246 244 242 242 241 241 241 242 242 242 242 242 242 242 242 243 244 248 252 258 263 268 272 277 279 279 276 268 258 251 247 243 241 240 241 241 243 245 245
265 259 253 250 246 244 242 240 240 239 239 240 240 240 240 240 240 241 241 241 242 244 247 252 258 263 267 272 275 275 274 268 259 253 248 245 243 242 242 243 245 246 248
266 261 257 253 248 245 243 241 239 239 238 238 238 238 238 238 238 239 240 240 240 241 243 247 252 257 262 268 270 271 271 266 260 254 251 248 245 244 244 245 247 248 249
265 261 258 254 251 247 245 242 240 239 238 237 236 237 237 236 236 237 238 238 238 239 240 243 247 251 256 262 266 267 268 264 258 255 252 248 246 245 245 246 247 248 249
264 259 256 253 251 248 246 244 242 239 238 238 236 235 235 235 234 234 235 236 236 237 238 239 243 247 251 256 260 262 263 261 257 254 253 249 246 245 246 246 248 249 249
261 257 252 249 248 248 246 245 243 242 240 238 237 235 234 233 232 231 232 233 233 234 235 237 239 243 247 251 255 257 258 257 255 253 252 251 248 247 245 245 247 248 247
260 255 249 246 244 244 244 243 242 241 240 240 238 236 234 232 231 230 230 230 231 231 232 234 236 240 243 246 249 252 252 253 253 252 251 249 246 245 244 244 245 246 246
256 251 246 243 241 239 239 240 241 240 239 238 239 237 234 233 231 229 228 228 228 229 229 230 232 235 239 242 245 248 249 250 250 250 248 247 245 243 242 243 245 244 244
255 249 242 239 238 236 236 236 237 237 236 235 235 236 235 232 231 230 228 226 225 225 226 227 229 232 235 238 241 244 246 246 245 244 245 245 244 243 243 243 243 243 242
254 246 238 235 233 232 233 233 233 232 231 231 231 232 232 229 228 227 226 224 223 222 222 224 226 228 230 233 235 238 240 241 240 240 241 242 243 244 244 242 241 242 243
Height
5851 5852 5852 5852 5853 5853 5853 5853 5853 5853 5853 5854 5854 5855 5855 5856 5856 5857 5857 5857 5858 5859 5860 5860 5861 5862 5862 5863 5865 5867 5869 5871 5873 5875 5877 5879 5880 5882 5884 5886 5887 5889 5891
5842 5843 5844 5845 5846 5846 5846 5847 5847 5847 5848 5848 5849 5849 5850 5850 5851 5851 5852 5852 5853 5853 5854 5855 5856 5857 5857 5858 5859 5861 5863 5865 5868 5870 5872 5874 5876 5878 5880 5882 5884 5886 5888
5832 5833 5835 5836 5838 5839 5839 5840 5840 5841 5841 5842 5843 5843 5844 5845 5846 5846 5847 5847 5847 5848 5849 5850 5850 5851 5851 5852 5853 5855 5857 5859 5862 5864 5867 5869 5871 5873 5876 5878 5880 5882 5884
5822 5824 5826 5829 5830 5831 5832 5833 5834 5835 5835 5836 5837 5837 5839 5840 5841 5841 5842 5842 5843 5843 5844 5844 5845 5846 5847 5847 5848 5849 5851 5853 5855 5858 5860 5863 5866 5868 5871 5873 5875 5878 5880
5813 5815 5818 5820 5822 5824 5825 5827 5827 5828 5829 5830 5831 5832 5833 5834 5836 5836 5837 5838 5838 5838 5839 5839 5839 5840 5841 5841 5842 5843 5844 5846 5849 5851 5854 5857 5860 5863 5866 5868 5870 5873 5875
5806 5807 5810 5813 5815 5817 5818 5820 5821 5821 5822 5824 5825 5826 5827 5829 5830 5832 5832 5833 5834 5834 5834 5834 5834 5834 5835 5835 5836 5837 5838 5840 5842 5845 5847 5850 5853 5856 5860 5863 5865 5868 5871
5799 5801 5803 5804 5807 5809 5811 5812 5813 5815 5816 5817 5819 5820 5822 5824 5825 5827 5828 5829 5830 5830 5830 5830 5829 5829 5829 5829 5830 5830 5831 5833 5835 5837 5840 5843 5846 5850 5853 5857 5860 5863 5865
5793 5795 5796 5797 5800 5801 5803 5804 5806 5808 5809 5811 5812 5814 5816 5818 5820 5821 5823 5824 5825 5825 5825 5825 5824 5823 5823 5823 5823 5824 5825 5826 5828 5830 5833 5836 5840 5843 5847 5850 5854 5857 5860
5788 5790 5790 5791 5792 5793 5795 5797 5799 5800 5802 5804 5806 5808 5810 5812 5814 5816 5818 5819 5820 5821 5821 5820 5819 5818 5817 5817 5817 5817 5818 5819 5821 5823 5826 5829 5832 5836 5839 5843 5847 5850 5854
5783 5783 5783 5784 5785 5785 5787 5789 5791 5793 5795 5797 5799 5801 5804 5805 5808 5810 5812 5814 5815 5815 5816 5816 5815 5813 5812 5811 5811 5811 5811 5812 5814 5816 5819 5822 5825 5828 5832 5836 5840 5843 5846
5776 5775 5775 5776 5777 5778 5779 5781 5782 5784 5787 5790 5792 5795 5797 5799 5801 5803 5805 5808 5809 5810 5810 5811 5810 5809 5807 5806 5805 5805 5805 5805 5807 5809 5811 5814 5817 5820 5824 5828 5832 5835 5839
5766 5766 5766 5767 5768 5769 5770 5771 5773 5776 5778 5781 5784 5787 5790 5792 5794 5796 5798 5801 5803 5805 5805 5805 5805 5803 5802 5801 5800 5799 5799 5799 5800 5802 5804 5807 5810 5813 5816 5820 5823 5827 5831
5753 5754 5755 5756 5757 5758 5760 5761 5763 5766 5768 5771 5774 5778 5781 5784 5787 5789 5791 5794 5796 5798 5799 5800 5799 5798 5797 5796 5794 5794 5793 5793 5794 5796 5798 5800 5803 5806 5809 5813 5816 5819 5823
5737 5738 5740 5742 5744 5746 5748 5750 5752 5755 5757 5760 5764 5767 5771 5774 5778 5781 5784 5786 5789 5791 5793 5794 5794 5793 5792 5790 5789 5788 5788 5788 5789 5790 5792 5794 5796 5799 5803 5806 5809 5812 5816
5718 5720 5722 5725 5728 5731 5734 5737 5739 5742 5745 5749 5752 5756 5760 5764 5768 5772 5775 5778 5781 5783 5785 5787 5788 5787 5786 5785 5784 5783 5783 5783 5783 5785 5786 5788 5791 5794 5797 5800 5803 5806 5809
5697 5699 5702 5705 5709 5713 5717 5721 5725 5728 5732 5736 5740 5744 5748 5753 5757 5761 5765 5769 5772 5775 5777 5779 5781 5781 5781 5780 5779 5778 5778 5778 5778 5779 5781 5783 5786 5788 5791 5794 5797 5800 5803
5675 5678 5680 5684 5688 5692 5697 5702 5707 5712 5716 5721 5725 5730 5735 5740 5745 5750 5755 5759 5763 5766 5769 5772 5774 5775 5775 5774 5774 5773 5773 5773 5774 5775 5777 5779 5781 5783 5786 5789 5792 5794 5797
5654 5655 5658 5661 5665 5670 5675 5681 5686 5693 5699 5704 5709 5715 5721 5726 5732 5737 5743 5748 5753 5757 5761 5763 5766 5768 5768 5769 5768 5768 5768 5768 5769 5770 5772 5774 5776 5778 5781 5784 5786 5789 5791
5634 5635 5636 5639 5643 5647 5652 5658 5665 5671 5678 5685 5692 5699 5706 5712 5718 5724 5730 5736 5742 5747 5751 5755 5758 5760 5762 5762 5762 5763 5763 5763 5764 5765 5767 5769 5772 5774 5776 5779 5781 5783 5785
5614 5615 5617 5619 5622 5626 5630 5636 5643 5650 5657 5665 5673 5681 5689 5697 5704 5711 5717 5724 5730 5736 5741 5746 5749 5752 5754 5755 5756 5757 5757 5758 5759 5760 5762 5764 5766 5769 5771 5773 5776 5777 5779
5593 5594 5597 5600 5603 5607 5611 5616 5622 5629 5637 5645 5654 5663 5671 5680 5688 5696 5704 5711 5718 5725 5731 5736 5740 5744 5747 5749 5750 5751 5752 5752 5753 5755 5757 5759 5761 5763 5765 5767 5769 5771 5773
5571 5574 5577 5581 5585 5589 5594 5598 5604 5610 5617 5625 5634 5643 5653 5662 5672 5680 5689 5697 5705 5713 5720 5726 5731 5735 5739 5741 5743 5744 5746 5747 5748 5750 5751 5753 5755 5757 5759 5761 5763 5765 5767
5549 5553 5557 5562 5567 5573 5577 5583 5588 5594 5601 5608 5616 5625 5634 5644 5655 5665 5674 5683 5692 5701 5709 5716 5722 5727 5731 5734 5736 5738 5740 5741 5742 5744 5746 5747 5749 5751 5753 5755 5757 5760 5761
5529 5534 5539 5545 5551 5557 5562 5568 5574 5580 5586 5593 5600 5608 5617 5627 5638 5649 5659 5670 5680 5689 5698 5706 5712 5717 5722 5725 5728 5731 5733 5735 5737 5739 5741 5742 5744 5746 5748 5750 5752 5754 5756
5511 5515 5521 5528 5535 5542 5548 5555 5561 5567 5574 5580 5587 5594 5602 5611 5623 5635 5647 5658 5668 5678 5686 5695 5702 5708 5713 5717 5721 5724 5727 5728 5731 5733 5735 5737 5739 5741 5743 5745 5747 5749 5751
5495 5499 5506 5513 5521 5528 5536 5542 5549 5556 5563 5570 5576 5583 5590 5599 5608 5620 5634 5646 5657 5667 5676 5685 5692 5699 5704 5709 5713 5717 5720 5723 5725 5727 5729 5731 5734 5736 5738 5740 5742 5744 5746